Location: Oberwangen
(47.4286°N, 8.9679°E)
Time: 09:30:57
(UTC+00:00)

Cosmos 405 - Pass Details

Date: 20 June 2021
Orbit: 447 x 459 km, 81.3° (Epoch: 04 August)

Event Time Altitude Azimuth Distance (km) Brightness Sun altitude
Rises 20:11:24 0° 359° (N) 2,463 7.5 -6.7°
Reaches altitude 10° 20:13:42 10° 12° (NNE) 1,585 6.2 -7.0°
Maximum altitude 20:16:40 26° 71° (ENE) 920 4.3 -7.4°
Enters shadow 20:19:36 10° 130° (SE) 1,568 5.0 -7.7°
